Location: Taukkyan
(23.1052°N, 94.0030°E)
Time: 11:37:14
(UTC+00:00)

IDEFIX/ARIANE 42P - Pass Details

Date: 06 July 2020
Orbit: 784 x 804 km, 98.4° (Epoch: 14 August)

Event Time Altitude Azimuth Distance (km) Brightness Sun altitude
Rises 20:55:48 0° 8° (N) 3,277 6.5 -25.6°
Reaches altitude 10° 20:58:08 10° 7° (N) 2,345 5.6 -25.2°
Maximum altitude 21:03:16 71° 284° (WNW) 829 2.4 -24.3°
Enters shadow 21:03:47 65° 243° (WSW) 858 2.4 -24.2°
